Location: Sternwarte auf dem Internationalen Platz Vogelsang IP
(50.5721°N, 6.4398°E)
Time: 03:09:40
(UTC+01:00)

Vanguard 2 - All Passes

Search period start: 05 December 2025 00:00
Search period end: 15 December 2025 00:00
Orbit: 552 x 2898 km, 32.9° (Epoch: 04 December)

Date Brightness Start Highest point End Pass type
(mag) Time Alt. Az. Time Alt. Az. Time Alt. Az.
05 Dec - 07:10:23 10° S 07:12:30 12° SSE 07:14:57 10° SE visible
05 Dec - 09:15:09 10° SW 09:19:23 18° S 09:24:58 10° SE daylight
05 Dec - 11:23:08 10° SW 11:27:04 14° SSW 11:31:47 10° S daylight
06 Dec - 07:21:51 10° SSW 07:24:13 13° SSE 07:26:58 10° SE visible
06 Dec - 09:27:21 10° SW 09:31:12 16° S 09:36:06 10° SSE daylight
06 Dec - 11:37:49 10° SSW 11:38:53 10° SSW 11:39:59 10° SSW daylight
07 Dec - 07:33:33 10° SSW 07:35:56 13° S 07:38:44 10° SE visible
07 Dec - 09:39:49 10° SW 09:43:01 14° S 09:46:53 10° SSE daylight
08 Dec - 07:45:29 10° SSW 07:47:42 13° S 07:50:15 10° SSE visible
08 Dec - 09:53:01 10° SSW 09:54:52 11° S 09:56:53 10° S daylight
09 Dec - 07:57:45 10° SSW 07:59:30 11° S 08:01:26 10° SSE daylight
